Location: Newark
(52.3735°N, 16.9806°E)
Time: 19:21:47
(UTC+00:00)

N. Korean satellite - Visible Passes

Search period start: 26 September 2021 00:00
Search period end: 06 October 2021 00:00
Orbit: 449 x 498 km, 97.3° (Epoch: 26 September)

Date Brightness Start Highest point End Pass type
(mag) Time Alt. Az. Time Alt. Az. Time Alt. Az.
26 Sep 10.0 03:04:21 10° ENE 03:05:55 12° E 03:07:28 10° ESE visible
27 Sep 7.3 04:08:13 10° NNE 04:11:45 59° ESE 04:15:17 10° S visible
28 Sep 8.8 03:40:40 10° NNE 03:43:49 29° E 03:47:01 10° SSE visible
29 Sep 9.8 03:13:33 10° NE 03:15:47 16° E 03:18:03 10° SE visible
01 Oct 8.3 03:50:13 10° NNE 03:53:35 37° E 03:56:58 10° SSE visible
02 Oct 9.5 03:22:52 10° NE 03:25:33 20° E 03:28:16 10° SE visible
03 Oct 10.3 02:56:42 10° ENE 02:57:25 10° E 02:58:06 10° E visible
04 Oct 7.7 03:59:43 10° NNE 04:03:14 48° E 04:06:46 10° S visible
05 Oct 9.2 03:32:11 10° NE 03:35:12 24° E 03:38:15 10° SSE visible
